Location: Poughquag
(41.6090°N, 73.6820°W)
Time: 11:45:35
(UTC-04:00)

Tiros 1 - Pass Details

Date: 31 May 2020
Orbit: 630 x 664 km, 48.4° (Epoch: 06 July)

Event Time Altitude Azimuth Distance (km) Brightness Sun altitude
Rises 13:36:50 0° 244° (WSW) 2,968 10.8 68.3°
Reaches altitude 10° 13:39:11 10° 245° (WSW) 2,054 10.2 68.1°
Maximum altitude 13:43:56 80° 332° (NNW) 661 8.6 67.7°
Drops below altitude 10° 13:48:38 10° 61° (ENE) 2,039 9.6 67.2°
Sets 13:50:58 0° 62° (ENE) 2,944 10.3 66.9°
